Meteo Giornale » Osservazioni meteo Stati Uniti (USA) » Baudette
ore: 13:53 - Osservazioni Meteo Baudette
Lat. 48° 43' N Lon. 94° 36' W Alt. 330 metri s.l.m.
26 °C
Sereno
Temp. 24 Ore
18 °C
26 °C
Ovest
18.5 Km/h
Dew point 13 °C
Umidità 44 %
Visibilità 10 Km
Il sole sorge alle ore 06:34
Il sole tramonta alle ore 20:02
| Data e Ora | Cielo e Fenomeni | T °C | DP °C | Um. % | Pres. hPa | Vis. km | Vento km/h | |
|---|---|---|---|---|---|---|---|---|
| Oggi h: 13:53 | Sereno | 26 | 13 | 44 | 1009 | 10 | O 18.5 | |
| Oggi h: 12:53 | Sereno | 24 | 14 | 53 | 1010 | 10 | O 16.7 | |
| Oggi h: 11:53 | Sereno | 23 | 17 | 68 | 1009 | 10 | O 11.1 | |
| Oggi h: 10:53 | Nuvoloso | 21 | 17 | 77 | 1009 | 10 | O 14.8 | |
| Oggi h: 10:16 | Nuvoloso | 21 | 17 | 77 | 1009 | 10 | O 16.7 | |
| Oggi h: 09:53 | Molto Nuvoloso | 21 | 18 | 82 | 1008 | 10 | O 13 | |
| Oggi h: 09:49 | Molto Nuvoloso | 21 | 18 | 82 | 1008 | 10 | O 16.7 | |
| Oggi h: 09:39 | Coperto | 21 | 18 | 82 | 1008 | 10 | O 14.8 | |
| Oggi h: 09:25 | Molto Nuvoloso | 21 | 19 | 88 | 1008 | 10 | O 16.7 | |
| Oggi h: 08:53 | Molto Nuvoloso | 21 | 19 | 88 | 1008 | 10 | O/SO 11.1 | |
| Oggi h: 08:28 | Coperto | 20 | 19 | 93 | 1008 | 11 | SO 9.3 | |
| Oggi h: 08:06 | Foschia | 19 | 19 | 100 | 1007 | 10 | S/SO 7.4 | |
| Oggi h: 07:53 | Foschia | 19 | 19 | 100 | 1007 | 8 | S/SO 7.4 | |
| Oggi h: 06:53 | Foschia | 19 | 18 | 93 | 1007 | 8 | S/SE 7.4 | |
| Oggi h: 06:29 | Coperto | 19 | 18 | 93 | 1007 | 11 | SE 11.1 | |
| Oggi h: 06:16 | Coperto | 18 | 18 | 100 | 1007 | 13 | SE 13 | |
| Oggi h: 05:53 | Coperto | 18 | 18 | 100 | 1006 | 13 | SE 14.8 | |
| Oggi h: 05:22 | Coperto | 18 | 18 | 100 | 1006 | 10 | SE 14.8 | |
| Oggi h: 05:15 | Coperto | 18 | 18 | 100 | 1006 | 10 | S/SE 13 | |
| Oggi h: 04:59 | Coperto | 18 | 18 | 100 | 1006 | 10 | SE 13 | |
| Oggi h: 04:53 | Coperto | 18 | 18 | 100 | 1006 | 10 | SE 11.1 | |
| Oggi h: 04:27 | Coperto | 18 | 18 | 100 | 1006 | 10 | SE 7.4 | |
| Oggi h: 04:16 | Molto Nuvoloso | 18 | 18 | 100 | 1006 | 10 | SE 13 | |
| Oggi h: 04:03 | Nuvoloso | 18 | 18 | 100 | 1006 | 10 | SE 13 | |
| Oggi h: 03:53 | Poco Nuvoloso | 18 | 18 | 100 | 1006 | 10 | SE 14.8 | |
| Oggi h: 03:09 | Pioggia | 18 | 18 | 100 | 1006 | 10 | SE 18.5 | |
| Oggi h: 02:58 | Temporale Foschia | 18 | 18 | 100 | 1007 | 10 | SE 13 | |
| Oggi h: 02:53 | Temporale Foschia | 18 | 18 | 100 | 1007 | 6 | S/SE 13 | |
| Oggi h: 02:49 | Temporale Foschia | 18 | 18 | 100 | 1007 | 5 | S 13 | |
| Oggi h: 02:45 | Temporale Foschia | 18 | 18 | 100 | 1007 | 2 | S/SE 7.4 | |
| Oggi h: 02:41 | Temporale Foschia | 18 | 18 | 100 | 1007 | 2 | SE 7.4 | |
| Oggi h: 02:36 | Temporale Foschia | 18 | 17 | 93 | 1007 | 2 | S/SE 11.1 | |
| Oggi h: 02:27 | Temporale | 18 | 17 | 93 | 1007 | 11 | S/SE 13 | |
| Oggi h: 01:53 | Coperto | 19 | 17 | 88 | 1007 | 10 | SE 13 | |
| Oggi h: 01:40 | Coperto | 19 | 17 | 88 | 1007 | 10 | SE 13 | |
| Oggi h: 00:53 | Coperto | 19 | 17 | 88 | 1007 | 10 | SE 18.5 | |
| Oggi h: 00:22 | Coperto | 19 | 16 | 82 | 1008 | 10 | SE 22.2 | |
| Ieri h: 23:53 | Coperto | 19 | 16 | 82 | 1008 | 10 | E/SE 24 | |
| Ieri h: 23:37 | Coperto | 19 | 17 | 88 | 1008 | 10 | E/SE 25.9 | |
| Ieri h: 22:53 | Coperto | 20 | 17 | 82 | 1009 | 10 | E/SE 20.3 | |
| Ieri h: 22:21 | Molto Nuvoloso | 20 | 17 | 82 | 1009 | 10 | E/SE 25.9 | |
| Ieri h: 21:53 | Sereno | 20 | 17 | 82 | 1010 | 10 | E/SE 24 | |
| Ieri h: 20:53 | Poco Nuvoloso | 21 | 17 | 77 | 1010 | 10 | E/SE 16.7 | |
| Ieri h: 19:53 | Nuvoloso | 22 | 17 | 73 | 1010 | 10 | E/SE 18.5 | |
| Ieri h: 18:53 | Sereno | 23 | 18 | 73 | 1009 | 10 | E/SE 24 | |
| Ieri h: 17:53 | Sereno | 23 | 18 | 73 | 1010 | 10 | E/SE 14.8 | |
| Ieri h: 16:53 | Sereno | 24 | 18 | 69 | 1011 | 10 | E/SE 20.3 | |
| Ieri h: 15:53 | Poco Nuvoloso | 24 | 18 | 69 | 1011 | 10 | SE 18.5 | |
| Ieri h: 14:53 | Sereno | 23 | 18 | 73 | 1011 | 10 | E 20.3 | |



